Regional Weather Roundup
Issued by NWS Charleston, WV

Home | Current Version | Previous Version | Graphics & Text | Print | Product List | Glossary On
Versions: 1 2 3 4 5 6 7 8 9 10 11 12 13 14 15 16 17 18 19 20 21 22 23 24 25 26 27 28 29 30 31 32 33 34 35 36 37 38 39 40 41 42 43 44 45 46 47 48 49
000
ASUS41 KRLX 220310
RWRRLX
West Virginia Regional Weather Roundup
National Weather Service Charleston WV
1100 PM EDT SAT OCT 21 2017

Note: "fair" indicates few or no clouds below 12,000 feet with no
significant weather and/or obstructions to visibility.

WVZ003-220400-
Northern Panhandle of West Virginia

CITY           SKY/WX    TMP DP  RH WIND       PRES   REMARKS
WHEELING       PTCLDY    58  49  72 E7        30.28S
$$

WVZ009-220400-
Northwest West Virginia

CITY           SKY/WX    TMP DP  RH WIND       PRES   REMARKS
PARKERSBURG    PTCLDY    56  54  93 SE3       30.29S
$$

WVZ006-220400-
Western West Virginia

CITY           SKY/WX    TMP DP  RH WIND       PRES   REMARKS
HUNTINGTON     CLEAR     57  53  86 E5        30.24S
$$

WVZ015-220400-
West Central West Virginia

CITY           SKY/WX    TMP DP  RH WIND       PRES   REMARKS
CHARLESTON     PTCLDY    55  52  89 NE3       30.27S
$$

WVZ022-031-220400-
North Central West Virginia

CITY           SKY/WX    TMP DP  RH WIND       PRES   REMARKS
CLARKSBURG     PTCLDY    57  52  83 CALM      30.29S
MORGANTOWN     PTCLDY    63  50  62 S3        30.30F
$$

WVZ025-035-042-045-220400-
Southern West Virginia

CITY           SKY/WX    TMP DP  RH WIND       PRES   REMARKS
BECKLEY        CLEAR     60  48  64 SE8       30.35R
LOGAN            N/A     64  46  52 CALM      30.29S
BLUEFIELD      PTCLDY    61  45  55 S6        30.37S
LEWISBURG      CLOUDY    59  49  70 CALM      30.38S
$$

WVZ047-220400-
Northern Mountains of West Virginia

CITY           SKY/WX    TMP DP  RH WIND       PRES   REMARKS
ELKINS         CLEAR     50  46  86 CALM      30.35R
$$

WVZ052-220400-
Eastern Panhandle of West Virginia

CITY           SKY/WX    TMP DP  RH WIND       PRES   REMARKS
MARTINSBURG    PTCLDY    51  46  83 CALM      30.34S
PETERSBURG     CLOUDY    52  51  95 CALM      30.34S
$$




USA.gov is the U.S. government's official web portal to all federal, state and local government web resources and services.